| time (UTC) | temp F | wind direction | speed MPH | gust MPH | rain 1hr in | rain 24hr in | rain mn in | humidity % | barometer mb |
| 20260504044536 | 43 | 174 | 1.0 | 3.0 | 0.00 | 0.00 | 0.00 | 95 | 1011.7 |
| 20260504043036 | 43 | 300 | 0.0 | 0.0 | 0.00 | 0.00 | 0.00 | 94 | 1011.9 |
| 20260504041529 | 44 | 300 | 0.0 | 0.0 | 0.00 | 0.00 | 0.00 | 94 | 1012.3 |
| 20260504040027 | 44 | 300 | 0.0 | 0.0 | 0.00 | 0.00 | 0.00 | 93 | 1012.3 |
| 20260504034524 | 44 | 300 | 0.0 | 0.0 | 0.00 | 0.00 | 0.00 | 91 | 1012.1 |
| 20260504033023 | 44 | 300 | 0.0 | 0.0 | 0.00 | 0.00 | 0.00 | 90 | 1012.2 |
| 20260504031523 | 44 | 300 | 0.0 | 1.0 | 0.00 | 0.00 | 0.00 | 89 | 1012.5 |
| 20260504030024 | 44 | 301 | 1.0 | 10.0 | 0.00 | 0.00 | 0.00 | 87 | 1012.7 |
| 20260504024531 | 45 | 286 | 0.0 | 0.0 | 0.00 | 0.00 | 0.00 | 86 | 1013.0 |
| 20260504023021 | 45 | 286 | 0.0 | 0.0 | 0.00 | 0.00 | 0.00 | 85 | 1012.8 |
| 20260504021524 | 46 | 286 | 0.0 | 0.0 | 0.00 | 0.00 | 0.00 | 80 | 1012.8 |
| 20260504020020 | 46 | 286 | 0.0 | 0.0 | 0.00 | 0.00 | 0.00 | 75 | 1012.7 |
| 20260504014520 | 47 | 286 | 0.0 | 0.0 | 0.00 | 0.00 | 0.00 | 72 | 1012.6 |
| 20260504013031 | 47 | 286 | 0.0 | 0.0 | 0.00 | 0.00 | 0.00 | 69 | 1012.6 |
| 20260504011519 | 48 | 286 | 0.0 | 1.0 | 0.00 | 0.00 | 0.00 | 66 | 1012.5 |
| 20260504010018 | 49 | 281 | 0.0 | 10.0 | 0.00 | 0.00 | 0.00 | 64 | 1012.5 |
| 20260504004518 | 49 | 313 | 0.0 | 3.0 | 0.00 | 0.00 | 0.00 | 61 | 1012.5 |
| 20260504003033 | 49 | 281 | 1.0 | 7.0 | 0.00 | 0.00 | 0.00 | 60 | 1012.5 |
| 20260504001516 | 49 | 265 | 0.0 | 2.0 | 0.00 | 0.00 | 0.00 | 56 | 1012.2 |
| 20260504000015 | 50 | 265 | 0.0 | 6.0 | 0.00 | 0.00 | 0.00 | 54 | 1012.1 |
| 20260503234515 | 50 | 283 | 1.0 | 5.0 | 0.00 | 0.00 | 0.00 | 53 | 1012.0 |
| 20260503233014 | 50 | 274 | 2.0 | 11.0 | 0.00 | 0.00 | 0.00 | 51 | 1011.9 |
| 20260503231515 | 51 | 299 | 0.0 | 8.0 | 0.00 | 0.00 | 0.00 | 50 | 1011.9 |
| 20260503230014 | 51 | 322 | 4.0 | 10.0 | 0.00 | 0.00 | 0.00 | 49 | 1012.0 |
| 20260503224524 | 52 | 302 | 4.0 | 9.0 | 0.00 | 0.00 | 0.00 | 45 | 1011.7 |
| 20260503223114 | 52 | 275 | 2.0 | 8.0 | 0.00 | 0.00 | 0.00 | 43 | 1011.6 |
| 20260503221512 | 52 | 329 | 2.0 | 13.0 | 0.00 | 0.00 | 0.00 | 44 | 1011.4 |
| 20260503220019 | 53 | 275 | 3.0 | 12.0 | 0.00 | 0.00 | 0.00 | 43 | 1011.4 |
| 20260503214511 | 53 | 266 | 6.0 | 18.0 | 0.00 | 0.00 | 0.00 | 42 | 1011.3 |
| 20260503213011 | 52 | 276 | 4.0 | 11.0 | 0.00 | 0.00 | 0.00 | 38 | 1011.5 |
| 20260503211512 | 53 | 330 | 4.0 | 11.0 | 0.00 | 0.00 | 0.00 | 38 | 1011.3 |
| 20260503210011 | 53 | 311 | 3.0 | 8.0 | 0.00 | 0.00 | 0.00 | 41 | 1011.3 |
| 20260503204508 | 52 | 271 | 7.0 | 18.0 | 0.00 | 0.00 | 0.00 | 37 | 1011.3 |
| 20260503203008 | 54 | 301 | 7.0 | 14.0 | 0.00 | 0.00 | 0.00 | 33 | 1011.4 |
| 20260503201506 | 54 | 330 | 2.0 | 15.0 | 0.00 | 0.00 | 0.00 | 37 | 1011.4 |
| 20260503200007 | 54 | 299 | 5.0 | 18.0 | 0.00 | 0.00 | 0.00 | 34 | 1011.5 |
| 20260503194503 | 53 | 291 | 7.0 | 20.0 | 0.00 | 0.00 | 0.00 | 35 | 1011.5 |
| 20260503193001 | 53 | 312 | 8.0 | 17.0 | 0.00 | 0.00 | 0.00 | 37 | 1012.0 |
| 20260503191559 | 53 | 257 | 5.0 | 16.0 | 0.00 | 0.00 | 0.00 | 37 | 1012.1 |
| 20260503190056 | 52 | 337 | 3.0 | 13.0 | 0.00 | 0.00 | 0.00 | 41 | 1012.3 |
| 20260503184610 | 51 | 270 | 11.0 | 22.0 | 0.00 | 0.00 | 0.00 | 38 | 1012.6 |
| 20260503183100 | 51 | 306 | 6.0 | 19.0 | 0.00 | 0.00 | 0.00 | 38 | 1012.7 |
| 20260503181555 | 51 | 275 | 7.0 | 15.0 | 0.00 | 0.00 | 0.00 | 39 | 1013.0 |
| 20260503180052 | 50 | 312 | 4.0 | 14.0 | 0.00 | 0.00 | 0.00 | 43 | 1013.0 |
| 20260503174548 | 50 | 305 | 3.0 | 10.0 | 0.00 | 0.00 | 0.00 | 44 | 1012.9 |
| 20260503173047 | 50 | 332 | 3.0 | 10.0 | 0.00 | 0.00 | 0.00 | 42 | 1013.1 |
| 20260503171604 | 49 | 338 | 2.0 | 14.0 | 0.00 | 0.00 | 0.00 | 45 | 1013.2 |
| 20260503081546 | 36 | 271 | 0.0 | 1.0 | 0.00 | 0.00 | 0.00 | 86 | 1014.3 |
| 20260503071603 | 37 | 270 | 0.0 | 0.0 | 0.00 | 0.00 | 0.00 | 85 | 1014.4 |